Portada
METAR-TAF:

METAR-TAF

Aeroports :

Vlissingen, Països Baixos

latitud: 51-27N, longitud: 3-36E, altitud: 10 m

Observació

L'informe es va fer fa 40 minuts, a les 14:55 UTC
Vent 8 kt del Nord-Oest, variant entre Oest i Nord
Temperatura 20°C
Humitat 49%
Pressió 1034 hPa
Visibilitat 10 km o més

METAR: EHFS 251455Z AUTO 32008KT 280V010 9999 NCD 20/09 Q1034

Hora: 17:35 (15:35 UTC)


TAF: manca

Observacions i pronòstics meteorològics de més de 4000 aeroports (METAR i TAF).

Les estacions disponibles són els punts grocs i vermells al mapa.

Posi el ratolí al punt desitjat per veure el nom de l'estació.

Feu clic per veure les observacions i els pronòstics meteorològics.

Per canviar el mapa: feu clic els botons verds amb una creu de color negre per apropar; al botó verd amb un guió per allunyar la imatge; o en les fletxes verdes per a mapes adjacents.


METAR-TAF: